Location: ???????
(55.3754°N, 39.3545°E)
Time: 17:03:03
(UTC+00:00)

Cosmos 2360 - Pass Details

Date: 14 April 2026
Orbit: 846 x 856 km, 70.7° (Epoch: 16 May)

Event Time Altitude Azimuth Distance (km) Brightness Sun altitude
Rises 20:45:01 0° 325° (NW) 3,421 8.4 -24.5°
Reaches altitude 10° 20:47:30 10° 328° (NNW) 2,483 7.5 -24.6°
Maximum altitude 20:53:12 67° 51° (NE) 919 4.4 -24.7°
Enters shadow 20:54:46 47° 114° (ESE) 1,118 4.5 -24.7°
